QTR8236 EBLG-EDDF

Flight info

Callsign QTR8236
Flight time 0h 38m
Altitude 19000
Route LNO L607 ARCKY T181 TOBOP T180 NIVNU T847 IMCOM IMCOM1A
Aircraft B77L/H-SDE1E3FGHIJ1J3J4J5M1P2RWXYZ/LB1D1G1

Departure

Time 2026-05-06 17:19
Airport Liège Airport (EBLG)

Arrival

Time 2026-05-06 17:57
Airport Frankfurt Main Airport (EDDF)
Time Latitude Longitude Altitude Speed Heading
2026-05-06 17:00 50.64150 5.43895 643 ft 0 kts 315°
2026-05-06 17:12 50.64137 5.43915 645 ft 4 kts 310°
2026-05-06 17:12 50.64121 5.43948 646 ft 4 kts 301°
2026-05-06 17:12 50.64108 5.43986 645 ft 4 kts 289°
2026-05-06 17:13 50.64103 5.44015 647 ft 0 kts 278°
2026-05-06 17:15 50.64100 5.44003 643 ft 3 kts 245°
2026-05-06 17:15 50.64076 5.43978 651 ft 5 kts 212°
2026-05-06 17:15 50.64027 5.43930 647 ft 11 kts 213°
2026-05-06 17:16 50.63969 5.43845 651 ft 12 kts 224°
2026-05-06 17:16 50.63912 5.43756 648 ft 12 kts 225°
2026-05-06 17:16 50.63855 5.43666 648 ft 12 kts 225°
2026-05-06 17:16 50.63790 5.43596 651 ft 11 kts 207°
2026-05-06 17:17 50.63720 5.43519 651 ft 15 kts 225°
2026-05-06 17:17 50.63696 5.43480 643 ft 0 kts 225°
2026-05-06 17:17 50.63680 5.43458 646 ft 9 kts 215°
2026-05-06 17:17 50.63611 5.43520 645 ft 17 kts 131°
2026-05-06 17:18 50.63516 5.43668 640 ft 20 kts 135°
2026-05-06 17:18 50.63421 5.43818 646 ft 15 kts 135°
2026-05-06 17:18 50.63413 5.43890 647 ft 1 kts 44°
2026-05-06 17:18 50.63454 5.43954 642 ft 23 kts 44°
2026-05-06 17:19 50.63705 5.44354 637 ft 87 kts 45°
2026-05-06 17:19 50.64292 5.45283 602 ft 149 kts 45°
2026-05-06 17:19 50.65117 5.46594 764 ft 177 kts 45°
2026-05-06 17:19 50.65957 5.47896 1452 ft 168 kts 44°
2026-05-06 17:20 50.66825 5.49206 1966 ft 175 kts 44°
2026-05-06 17:20 50.67719 5.50559 2464 ft 185 kts 44°
2026-05-06 17:20 50.68627 5.52153 2656 ft 205 kts 64°
2026-05-06 17:20 50.68743 5.54367 3153 ft 209 kts 104°
2026-05-06 17:21 50.68184 5.56490 3773 ft 211 kts 115°
2026-05-06 17:21 50.67475 5.58616 4086 ft 231 kts 117°
2026-05-06 17:21 50.66661 5.60976 4287 ft 257 kts 118°
2026-05-06 17:21 50.65796 5.63459 4875 ft 266 kts 118°
2026-05-06 17:22 50.64883 5.66077 5605 ft 272 kts 118°
2026-05-06 17:22 50.63982 5.68673 6385 ft 275 kts 118°
2026-05-06 17:22 50.63058 5.71338 7156 ft 278 kts 118°
2026-05-06 17:22 50.62128 5.74031 7900 ft 282 kts 118°
2026-05-06 17:23 50.61181 5.76775 8594 ft 287 kts 118°
2026-05-06 17:23 50.60220 5.79561 9318 ft 291 kts 118°
2026-05-06 17:23 50.59892 5.80512 9550 ft 292 kts 118°
2026-05-06 17:23 50.59285 5.82275 9994 ft 294 kts 118°
2026-05-06 17:24 50.58287 5.85166 10459 ft 310 kts 119°
2026-05-06 17:24 50.57213 5.88273 10641 ft 335 kts 119°
2026-05-06 17:24 50.56054 5.91626 10861 ft 360 kts 119°
2026-05-06 17:24 50.54823 5.95183 11311 ft 376 kts 119°
2026-05-06 17:25 50.53576 5.98787 12026 ft 384 kts 119°
2026-05-06 17:25 50.52289 6.02497 12946 ft 388 kts 119°
2026-05-06 17:25 50.50992 6.06234 13850 ft 391 kts 119°
2026-05-06 17:25 50.49680 6.10002 14687 ft 396 kts 119°
2026-05-06 17:26 50.48353 6.13813 15477 ft 400 kts 120°
2026-05-06 17:26 50.47009 6.17666 16241 ft 405 kts 120°
2026-05-06 17:26 50.45645 6.21569 17014 ft 409 kts 120°
2026-05-06 17:26 50.44269 6.25503 17785 ft 413 kts 120°
2026-05-06 17:27 50.42879 6.29472 18517 ft 417 kts 120°
2026-05-06 17:27 50.41468 6.33491 18884 ft 425 kts 120°
2026-05-06 17:27 50.40015 6.37624 18871 ft 437 kts 120°
2026-05-06 17:27 50.38546 6.41799 18865 ft 441 kts 120°
2026-05-06 17:28 50.37059 6.46019 18859 ft 441 kts 119°
2026-05-06 17:28 50.35713 6.50339 18858 ft 440 kts 114°
2026-05-06 17:28 50.34687 6.54855 18850 ft 440 kts 108°
2026-05-06 17:28 50.33792 6.59429 18852 ft 439 kts 108°
2026-05-06 17:29 50.32898 6.63946 18855 ft 439 kts 108°
2026-05-06 17:29 50.31984 6.68511 18854 ft 440 kts 108°
2026-05-06 17:29 50.31063 6.73070 18850 ft 440 kts 108°
2026-05-06 17:29 50.30133 6.77638 18845 ft 440 kts 108°
2026-05-06 17:30 50.29198 6.82213 18843 ft 441 kts 109°
2026-05-06 17:30 50.28262 6.86773 18840 ft 441 kts 109°
2026-05-06 17:30 50.27320 6.91348 18837 ft 442 kts 109°
2026-05-06 17:30 50.26375 6.95924 18835 ft 442 kts 109°
2026-05-06 17:31 50.25430 7.00490 18837 ft 442 kts 109°
2026-05-06 17:31 50.24481 7.05071 18835 ft 441 kts 109°
2026-05-06 17:31 50.23534 7.09629 18831 ft 441 kts 109°
2026-05-06 17:31 50.22592 7.14157 18794 ft 434 kts 109°
2026-05-06 17:32 50.21670 7.18584 18665 ft 425 kts 109°
2026-05-06 17:32 50.20759 7.22944 18333 ft 418 kts 109°
2026-05-06 17:32 50.19871 7.27181 18216 ft 408 kts 109°
2026-05-06 17:32 50.18991 7.31369 17870 ft 407 kts 109°
2026-05-06 17:33 50.18107 7.35569 17497 ft 406 kts 109°
2026-05-06 17:33 50.17236 7.39699 17178 ft 405 kts 109°
2026-05-06 17:33 50.16354 7.43869 16886 ft 403 kts 109°
2026-05-06 17:33 50.15478 7.48007 16597 ft 401 kts 109°
2026-05-06 17:34 50.14604 7.52126 16307 ft 399 kts 109°
2026-05-06 17:34 50.13734 7.56222 15989 ft 397 kts 109°
2026-05-06 17:34 50.12867 7.60300 15520 ft 395 kts 109°
2026-05-06 17:34 50.12004 7.64344 15035 ft 392 kts 109°
2026-05-06 17:35 50.11117 7.68342 14538 ft 385 kts 113°
2026-05-06 17:35 50.09816 7.71905 14056 ft 377 kts 127°
2026-05-06 17:35 50.08254 7.75174 13596 ft 374 kts 128°
2026-05-06 17:36 50.05236 7.81687 12647 ft 368 kts 126°
2026-05-06 17:36 50.03778 7.84942 12187 ft 365 kts 126°
2026-05-06 17:36 50.02334 7.88181 11702 ft 362 kts 126°
2026-05-06 17:36 50.00937 7.91407 11236 ft 354 kts 120°
2026-05-06 17:37 50.00174 7.94957 10932 ft 356 kts 96°
2026-05-06 17:37 50.00280 7.98850 10850 ft 368 kts 78°
2026-05-06 17:37 50.01074 8.02664 10826 ft 374 kts 69°
2026-05-06 17:37 50.02014 8.06390 10808 ft 362 kts 69°
2026-05-06 17:38 50.02922 8.09946 10793 ft 346 kts 69°
2026-05-06 17:38 50.03782 8.13348 10794 ft 329 kts 69°
2026-05-06 17:38 50.04601 8.16635 10804 ft 326 kts 69°
2026-05-06 17:38 50.05416 8.19944 10812 ft 326 kts 69°
2026-05-06 17:39 50.06219 8.23234 10814 ft 325 kts 70°
2026-05-06 17:39 50.07019 8.26524 10814 ft 325 kts 70°
2026-05-06 17:39 50.07817 8.29815 10814 ft 325 kts 70°
2026-05-06 17:39 50.08614 8.33111 10815 ft 324 kts 70°
2026-05-06 17:40 50.09406 8.36398 10815 ft 324 kts 70°
2026-05-06 17:40 50.10188 8.39647 10815 ft 324 kts 70°
2026-05-06 17:40 50.10979 8.42937 10812 ft 324 kts 70°
2026-05-06 17:40 50.11766 8.46220 10807 ft 320 kts 70°
2026-05-06 17:41 50.12532 8.49421 10795 ft 310 kts 70°
2026-05-06 17:41 50.13271 8.52516 10722 ft 301 kts 70°
2026-05-06 17:41 50.13996 8.55551 10437 ft 297 kts 70°
2026-05-06 17:41 50.14707 8.58531 9874 ft 292 kts 70°
2026-05-06 17:42 50.15422 8.61529 9373 ft 296 kts 70°
2026-05-06 17:42 50.16139 8.64536 8976 ft 294 kts 70°
2026-05-06 17:42 50.16837 8.67486 8459 ft 289 kts 70°
2026-05-06 17:42 50.17531 8.70417 7818 ft 288 kts 70°
2026-05-06 17:43 50.18222 8.73325 7241 ft 286 kts 70°
2026-05-06 17:43 50.18902 8.76193 6715 ft 287 kts 70°
2026-05-06 17:43 50.19600 8.79142 6676 ft 290 kts 70°
2026-05-06 17:43 50.20288 8.82062 6566 ft 284 kts 70°
2026-05-06 17:44 50.20975 8.84976 6525 ft 287 kts 70°
2026-05-06 17:44 50.21659 8.87894 6441 ft 282 kts 70°
2026-05-06 17:44 50.22328 8.90743 6127 ft 276 kts 70°
2026-05-06 17:44 50.22982 8.93532 5631 ft 271 kts 70°
2026-05-06 17:45 50.23631 8.96308 5145 ft 274 kts 70°
2026-05-06 17:45 50.24290 8.99126 4889 ft 277 kts 70°
2026-05-06 17:45 50.24947 9.01943 4817 ft 274 kts 70°
2026-05-06 17:45 50.25596 9.04728 4663 ft 272 kts 70°
2026-05-06 17:46 50.26241 9.07495 4359 ft 269 kts 70°
2026-05-06 17:46 50.26879 9.10236 4047 ft 268 kts 70°
2026-05-06 17:46 50.27526 9.13014 4027 ft 273 kts 70°
2026-05-06 17:46 50.28174 9.15808 4017 ft 273 kts 70°
2026-05-06 17:47 50.28809 9.18558 3990 ft 271 kts 70°
2026-05-06 17:47 50.29445 9.21312 3994 ft 269 kts 70°
2026-05-06 17:47 50.29924 9.24113 4000 ft 267 kts 88°
2026-05-06 17:47 50.29592 9.26937 4018 ft 267 kts 117°
2026-05-06 17:48 50.28433 9.29191 3998 ft 268 kts 145°
2026-05-06 17:48 50.26734 9.30316 4026 ft 268 kts 173°
2026-05-06 17:48 50.24893 9.30062 4003 ft 268 kts 201°
2026-05-06 17:48 50.23312 9.28574 4018 ft 266 kts 219°
2026-05-06 17:49 50.21909 9.26658 4018 ft 268 kts 223°
2026-05-06 17:49 50.20533 9.24662 3999 ft 270 kts 224°
2026-05-06 17:49 50.19211 9.22601 4003 ft 265 kts 232°
2026-05-06 17:49 50.18399 9.20077 4008 ft 258 kts 252°
2026-05-06 17:50 50.17866 9.17399 4025 ft 265 kts 252°
2026-05-06 17:50 50.17272 9.14615 4022 ft 268 kts 251°
2026-05-06 17:50 50.16658 9.11921 4002 ft 266 kts 250°
2026-05-06 17:50 50.16017 9.09183 3998 ft 264 kts 250°
2026-05-06 17:51 50.15391 9.06534 3992 ft 263 kts 250°
2026-05-06 17:51 50.14759 9.03873 4015 ft 260 kts 250°
2026-05-06 17:51 50.14121 9.01197 4003 ft 260 kts 250°
2026-05-06 17:51 50.13492 8.98545 4017 ft 261 kts 250°
2026-05-06 17:52 50.12864 8.95895 3998 ft 258 kts 250°
2026-05-06 17:52 50.12257 8.93329 3984 ft 246 kts 250°
2026-05-06 17:52 50.11691 8.90938 3982 ft 233 kts 250°
2026-05-06 17:52 50.11129 8.88584 3992 ft 228 kts 250°
2026-05-06 17:53 50.10593 8.86328 4029 ft 216 kts 250°
2026-05-06 17:53 50.10068 8.84126 3734 ft 217 kts 250°
2026-05-06 17:53 50.09551 8.81953 3458 ft 211 kts 250°
2026-05-06 17:53 50.09050 8.79841 3177 ft 205 kts 250°
2026-05-06 17:54 50.08567 8.77816 2927 ft 194 kts 250°
2026-05-06 17:54 50.08261 8.76528 2747 ft 188 kts 250°
2026-05-06 17:54 50.07813 8.74646 2493 ft 180 kts 250°
2026-05-06 17:54 50.07256 8.72303 2215 ft 173 kts 250°
2026-05-06 17:55 50.06851 8.70599 1979 ft 161 kts 251°
2026-05-06 17:55 50.06473 8.69009 1784 ft 154 kts 250°
2026-05-06 17:55 50.06219 8.67941 1639 ft 155 kts 251°
2026-05-06 17:55 50.05718 8.65837 1364 ft 157 kts 250°
2026-05-06 17:56 50.05468 8.64788 1231 ft 156 kts 250°
2026-05-06 17:56 50.05091 8.63208 1003 ft 155 kts 250°
2026-05-06 17:56 50.04710 8.61630 785 ft 155 kts 250°
2026-05-06 17:56 50.04342 8.60060 593 ft 154 kts 250°
2026-05-06 17:57 50.03966 8.58498 400 ft 156 kts 250°
2026-05-06 17:57 50.03611 8.57006 361 ft 132 kts 249°
2026-05-06 17:57 50.03366 8.55980 352 ft 57 kts 249°
2026-05-06 17:57 50.03228 8.55575 357 ft 30 kts 228°
2026-05-06 17:58 50.03101 8.55404 349 ft 23 kts 220°
2026-05-06 17:58 50.02992 8.55280 346 ft 15 kts 198°
2026-05-06 17:58 50.02933 8.55331 356 ft 11 kts 96°
2026-05-06 17:58 50.02955 8.55447 350 ft 11 kts 69°
2026-05-06 17:59 50.02983 8.55561 351 ft 11 kts 69°
2026-05-06 17:59 50.03011 8.55676 356 ft 11 kts 70°
2026-05-06 17:59 50.03038 8.55793 355 ft 11 kts 70°
2026-05-06 17:59 50.03066 8.55906 353 ft 11 kts 69°
2026-05-06 18:00 50.03094 8.56022 356 ft 11 kts 70°
2026-05-06 18:00 50.03121 8.56137 355 ft 11 kts 69°
2026-05-06 18:00 50.03151 8.56263 360 ft 14 kts 70°
2026-05-06 18:00 50.03194 8.56445 356 ft 19 kts 69°
2026-05-06 18:01 50.03239 8.56635 354 ft 19 kts 69°
2026-05-06 18:01 50.03265 8.56810 356 ft 16 kts 112°
2026-05-06 18:01 50.03169 8.56892 361 ft 16 kts 160°
2026-05-06 18:01 50.03062 8.56954 357 ft 16 kts 160°
2026-05-06 18:02 50.02955 8.57015 363 ft 16 kts 159°
2026-05-06 18:02 50.02849 8.57077 361 ft 16 kts 160°
2026-05-06 18:02 50.02769 8.57102 355 ft 7 kts 216°
2026-05-06 18:02 50.02743 8.57031 355 ft 8 kts 249°
2026-05-06 18:03 50.02734 8.56992 357 ft 0 kts 249°